Time,TemperatureF,DewpointF,PressureIn,WindDirection,WindDirectionDegrees,WindSpeedMPH,WindSpeedGustMPH,Humidity,HourlyPrecipIn,Conditions,Clouds,dailyrainin,SolarRadiationWatts/m^2,SoftwareType,DateUTC
2013-02-16 00:09:00,29.8,-16.7,30.15,NNW,340,1.0,3.0,12,0.00,CLR,,0.00,0.0,WeatherDisplay:10.37,2013-02-16 06:09:00,
2013-02-16 00:22:00,29.6,-16.9,30.15,North,355,1.0,3.0,12,0.00,CLR,,0.00,0.0,WeatherDisplay:10.37,2013-02-16 06:22:00,
2013-02-16 00:29:00,29.6,-16.9,30.15,NNW,327,1.0,2.0,12,0.00,CLR,,0.00,0.0,WeatherDisplay:10.37,2013-02-16 06:29:00,
2013-02-16 00:39:00,29.4,-17.1,30.15,NW,313,1.0,2.0,12,0.00,CLR,,0.00,0.0,WeatherDisplay:10.37,2013-02-16 06:39:00,
2013-02-16 00:50:00,29.0,-17.4,30.15,NNW,333,1.0,3.0,12,0.00,CLR,,0.00,0.0,WeatherDisplay:10.37,2013-02-16 06:50:00,
2013-02-16 00:59:00,28.8,-17.6,30.15,NNW,343,1.0,2.0,12,0.00,CLR,,0.00,0.0,WeatherDisplay:10.37,2013-02-16 06:59:00,
2013-02-16 01:09:00,28.7,-17.7,30.15,North,356,1.0,4.0,12,0.00,CLR,,0.00,0.0,WeatherDisplay:10.37,2013-02-16 07:09:00,
2013-02-16 01:19:00,28.5,-17.8,30.15,NNW,336,1.0,4.0,12,0.00,CLR,,0.00,0.0,WeatherDisplay:10.37,2013-02-16 07:19:00,
2013-02-16 01:29:00,28.4,-17.9,30.15,NW,311,2.0,3.0,12,0.00,CLR,,0.00,0.0,WeatherDisplay:10.37,2013-02-16 07:29:00,
2013-02-16 01:39:00,28.2,-18.0,30.14,WNW,296,2.0,3.0,12,0.00,CLR,,0.00,0.0,WeatherDisplay:10.37,2013-02-16 07:39:00,
2013-02-16 01:59:00,27.8,-18.3,30.14,WNW,297,1.0,5.0,12,0.00,CLR,,0.00,0.0,WeatherDisplay:10.37,2013-02-16 07:59:00,
2013-02-16 02:09:00,27.7,-18.4,30.14,NW,320,1.0,5.0,12,0.00,CLR,,0.00,0.0,WeatherDisplay:10.37,2013-02-16 08:09:00,
2013-02-16 02:19:00,26.9,25.2,30.13,NNW,338,0.0,5.0,93,0.00,CLR,,0.00,0.0,WeatherDisplay:10.37,2013-02-16 08:19:00,
2013-02-16 02:38:00,26.6,24.9,30.13,NNE,25,0.0,0.0,93,0.00,CLR,,0.00,0.0,WeatherDisplay:10.37,2013-02-16 08:38:00,
2013-02-16 02:49:00,26.4,24.7,30.13,ENE,66,0.0,0.0,93,0.00,CLR,,0.00,0.0,WeatherDisplay:10.37,2013-02-16 08:49:00,
2013-02-16 02:58:00,26.1,24.4,30.13,ENE,64,0.0,0.0,93,0.00,CLR,,0.00,0.0,WeatherDisplay:10.37,2013-02-16 08:58:00,
2013-02-16 03:18:00,25.0,23.3,30.12,East,82,0.0,2.0,93,0.00,CLR,,0.00,0.0,WeatherDisplay:10.37,2013-02-16 09:18:00,
2013-02-16 03:28:00,24.6,22.9,30.12,ESE,105,0.0,0.0,93,0.00,CLR,,0.00,0.0,WeatherDisplay:10.37,2013-02-16 09:28:00,
2013-02-16 03:38:00,24.4,22.7,30.12,ESE,108,0.0,0.0,93,0.00,CLR,,0.00,0.0,WeatherDisplay:10.37,2013-02-16 09:38:00,
2013-02-16 03:48:00,24.2,22.5,30.11,ESE,112,0.0,0.0,93,0.00,CLR,,0.00,0.0,WeatherDisplay:10.37,2013-02-16 09:48:00,
2013-02-16 03:58:00,24.1,22.4,30.12,ESE,113,0.0,0.0,93,0.00,CLR,,0.00,0.0,WeatherDisplay:10.37,2013-02-16 09:58:00,
2013-02-16 04:08:00,23.9,22.2,30.12,SE,144,0.0,0.0,93,0.00,CLR,,0.00,0.0,WeatherDisplay:10.37,2013-02-16 10:08:00,
2013-02-16 04:18:00,23.7,22.0,30.12,ESE,113,0.0,0.0,93,0.00,CLR,,0.00,0.0,WeatherDisplay:10.37,2013-02-16 10:18:00,
2013-02-16 04:28:00,23.5,21.8,30.12,ESE,117,0.0,0.0,93,0.00,CLR,,0.00,0.0,WeatherDisplay:10.37,2013-02-16 10:28:00,
2013-02-16 04:38:00,23.5,21.8,30.12,ESE,113,0.0,0.0,93,0.00,CLR,,0.00,0.0,WeatherDisplay:10.37,2013-02-16 10:38:00,
2013-02-16 04:47:00,23.5,21.8,30.12,ESE,112,0.0,0.0,93,0.00,CLR,,0.00,0.0,WeatherDisplay:10.37,2013-02-16 10:47:00,
2013-02-16 04:57:00,23.3,21.6,30.12,ESE,110,0.0,0.0,93,0.00,CLR,,0.00,0.0,WeatherDisplay:10.37,2013-02-16 10:57:00,
2013-02-16 05:07:00,23.5,21.8,30.12,East,90,0.0,0.0,93,0.00,CLR,,0.00,0.0,WeatherDisplay:10.37,2013-02-16 11:07:00,
2013-02-16 05:17:00,23.3,21.6,30.12,East,93,0.0,0.0,93,0.00,CLR,,0.00,0.0,WeatherDisplay:10.37,2013-02-16 11:17:00,
2013-02-16 05:27:00,23.0,21.3,30.12,ESE,108,0.0,0.0,93,0.00,CLR,,0.00,0.0,WeatherDisplay:10.37,2013-02-16 11:27:00,
2013-02-16 05:37:00,23.0,21.3,30.11,ESE,112,0.0,0.0,93,0.00,CLR,,0.00,0.0,WeatherDisplay:10.37,2013-02-16 11:37:00,
2013-02-16 05:47:00,22.8,21.1,30.12,ESE,112,0.0,0.0,93,0.00,CLR,,0.00,0.0,WeatherDisplay:10.37,2013-02-16 11:47:00,
2013-02-16 05:57:00,22.5,20.8,30.11,SE,137,0.0,2.0,93,0.00,CLR,,0.00,0.0,WeatherDisplay:10.37,2013-02-16 11:57:00,
2013-02-16 06:07:00,22.3,20.6,30.12,SE,142,0.0,0.0,93,0.00,CLR,,0.00,0.0,WeatherDisplay:10.37,2013-02-16 12:07:00,
2013-02-16 06:17:00,22.3,20.6,30.12,ESE,114,0.0,0.0,93,0.00,CLR,,0.00,0.0,WeatherDisplay:10.37,2013-02-16 12:17:00,
2013-02-16 06:27:00,22.3,20.6,30.12,ESE,111,0.0,0.0,93,0.00,CLR,,0.00,0.0,WeatherDisplay:10.37,2013-02-16 12:27:00,
2013-02-16 06:40:00,22.3,20.6,30.11,ESE,106,0.0,0.0,93,0.00,OVC,,0.00,0.0,WeatherDisplay:10.37,2013-02-16 12:40:00,
2013-02-16 06:50:00,22.1,20.4,30.12,ESE,113,0.0,0.0,93,0.00,OVC,,0.00,0.0,WeatherDisplay:10.37,2013-02-16 12:50:00,
2013-02-16 07:00:00,22.3,20.6,30.13,ESE,112,0.0,0.0,93,0.00,OVC,,0.00,0.0,WeatherDisplay:10.37,2013-02-16 13:00:00,
2013-02-16 07:10:00,22.1,20.4,30.13,ESE,112,0.0,0.0,93,0.00,OVC,,0.00,0.0,WeatherDisplay:10.37,2013-02-16 13:10:00,
2013-02-16 07:20:00,22.7,21.0,30.12,ESE,112,0.0,0.0,93,0.00,OVC,,0.00,0.0,WeatherDisplay:10.37,2013-02-16 13:20:00,
2013-02-16 07:30:00,23.7,22.0,30.13,ESE,112,0.0,0.0,93,0.00,OVC,,0.00,0.0,WeatherDisplay:10.37,2013-02-16 13:30:00,
2013-02-16 07:40:00,26.2,24.5,30.13,South,185,0.0,2.0,93,0.00,OVC,,0.00,0.0,WeatherDisplay:10.37,2013-02-16 13:40:00,
2013-02-16 07:50:00,27.9,26.2,30.14,NNW,337,1.0,2.0,93,0.00,OVC,,0.00,0.0,WeatherDisplay:10.37,2013-02-16 13:50:00,
2013-02-16 08:00:00,28.4,26.7,30.14,NW,305,3.0,5.0,93,0.00,OVC,,0.00,0.0,WeatherDisplay:10.37,2013-02-16 14:00:00,
2013-02-16 08:10:00,28.9,27.2,30.14,NW,304,2.0,5.0,93,0.00,OVC,,0.00,0.0,WeatherDisplay:10.37,2013-02-16 14:10:00,
2013-02-16 08:50:00,30.4,28.6,30.15,NW,313,3.0,6.0,93,0.00,OVC,,0.00,0.0,WeatherDisplay:10.37,2013-02-16 14:50:00,
2013-02-16 08:59:00,31.3,29.5,30.14,NW,312,6.0,7.0,93,0.00,OVC,,0.00,0.0,WeatherDisplay:10.37,2013-02-16 14:59:00,
2013-02-16 09:09:00,32.6,30.8,30.14,WNW,299,2.0,7.0,93,0.00,OVC,,0.00,0.0,WeatherDisplay:10.37,2013-02-16 15:09:00,
2013-02-16 09:19:00,34.7,32.9,30.14,West,272,5.0,6.0,93,0.00,OVC,,0.00,0.0,WeatherDisplay:10.37,2013-02-16 15:19:00,
2013-02-16 09:29:00,33.2,31.4,30.14,NW,316,2.0,7.0,93,0.00,OVC,,0.00,0.0,WeatherDisplay:10.37,2013-02-16 15:29:00,
2013-02-16 09:39:00,33.4,31.6,30.15,WNW,301,5.0,8.0,93,0.00,OVC,,0.00,0.0,WeatherDisplay:10.37,2013-02-16 15:39:00,
2013-02-16 09:49:00,33.1,31.3,30.14,NW,304,3.0,8.0,93,0.00,OVC,,0.00,0.0,WeatherDisplay:10.37,2013-02-16 15:49:00,
2013-02-16 09:59:00,33.6,31.8,30.14,North,4,7.0,10.0,93,0.00,OVC,,0.00,0.0,WeatherDisplay:10.37,2013-02-16 15:59:00,
2013-02-16 10:09:00,35.1,33.3,30.15,WNW,295,3.0,6.0,93,0.00,OVC,,0.00,0.0,WeatherDisplay:10.37,2013-02-16 16:09:00,
2013-02-16 10:19:00,33.9,32.1,30.15,WNW,300,3.0,8.0,93,0.00,OVC,,0.00,0.0,WeatherDisplay:10.37,2013-02-16 16:19:00,
2013-02-16 10:29:00,33.6,31.8,30.15,NNW,330,5.0,7.0,93,0.00,OVC,,0.00,0.0,WeatherDisplay:10.37,2013-02-16 16:29:00,
2013-02-16 10:39:00,35.0,33.2,30.15,WNW,283,3.0,5.0,93,0.00,OVC,,0.00,0.0,WeatherDisplay:10.37,2013-02-16 16:39:00,
2013-02-16 10:49:00,35.3,33.5,30.15,NW,309,3.0,8.0,93,0.00,OVC,,0.00,0.0,WeatherDisplay:10.37,2013-02-16 16:49:00,
2013-02-16 11:00:00,33.8,32.0,30.14,NW,323,3.0,7.0,93,0.00,OVC,,0.00,0.0,WeatherDisplay:10.37,2013-02-16 17:00:00,
2013-02-16 11:10:00,34.1,32.3,30.14,NW,313,3.0,8.0,93,0.00,OVC,,0.00,0.0,WeatherDisplay:10.37,2013-02-16 17:10:00,
2013-02-16 11:20:00,34.0,32.2,30.14,NW,325,3.0,8.0,93,0.00,OVC,,0.00,0.0,WeatherDisplay:10.37,2013-02-16 17:20:00,
2013-02-16 11:30:00,34.5,32.7,30.14,NW,306,5.0,8.0,93,0.00,OVC,,0.00,0.0,WeatherDisplay:10.37,2013-02-16 17:30:00,
2013-02-16 11:40:00,35.9,34.1,30.14,WNW,290,3.0,7.0,93,0.00,OVC,,0.00,0.0,WeatherDisplay:10.37,2013-02-16 17:40:00,
2013-02-16 11:50:00,34.9,33.1,30.13,WNW,290,7.0,8.0,93,0.00,OVC,,0.00,0.0,WeatherDisplay:10.37,2013-02-16 17:50:00,
2013-02-16 12:00:00,35.9,34.1,30.13,NNW,333,3.0,8.0,93,0.00,OVC,,0.00,0.0,WeatherDisplay:10.37,2013-02-16 18:00:00,
2013-02-16 12:10:00,35.6,33.8,30.13,NNW,343,5.0,8.0,93,0.00,OVC,,0.00,0.0,WeatherDisplay:10.37,2013-02-16 18:10:00,
2013-02-16 12:20:00,35.3,33.5,30.12,NW,323,5.0,9.0,93,0.00,OVC,,0.00,0.0,WeatherDisplay:10.37,2013-02-16 18:20:00,
2013-02-16 12:30:00,36.0,34.2,30.12,NW,311,6.0,9.0,93,0.00,OVC,,0.00,0.0,WeatherDisplay:10.37,2013-02-16 18:30:00,
2013-02-16 12:40:00,35.8,34.0,30.12,WNW,301,5.0,9.0,93,0.00,OVC,,0.00,0.0,WeatherDisplay:10.37,2013-02-16 18:40:00,
2013-02-16 12:50:00,35.9,34.1,30.11,NW,313,6.0,11.0,93,0.00,OVC,,0.00,0.0,WeatherDisplay:10.37,2013-02-16 18:50:00,
2013-02-16 13:00:00,35.9,34.1,30.11,NW,306,7.0,14.0,93,0.00,OVC,,0.00,0.0,WeatherDisplay:10.37,2013-02-16 19:00:00,
2013-02-16 13:10:00,36.7,34.9,30.11,WNW,298,6.0,14.0,93,0.00,OVC,,0.00,0.0,WeatherDisplay:10.37,2013-02-16 19:10:00,
2013-02-16 13:19:00,35.8,33.9,30.11,WNW,292,6.0,9.0,93,0.00,OVC,,0.00,0.0,WeatherDisplay:10.37,2013-02-16 19:19:00,
2013-02-16 13:29:00,37.1,35.3,30.11,NW,314,5.0,8.0,93,0.00,OVC,,0.00,0.0,WeatherDisplay:10.37,2013-02-16 19:29:00,
2013-02-16 13:39:00,36.5,34.6,30.10,NW,312,5.0,7.0,93,0.00,OVC,,0.00,0.0,WeatherDisplay:10.37,2013-02-16 19:39:00,
2013-02-16 13:49:00,36.9,35.0,30.10,NNW,332,5.0,8.0,93,0.00,OVC,,0.00,0.0,WeatherDisplay:10.37,2013-02-16 19:49:00,
2013-02-16 13:59:00,36.7,34.9,30.10,NW,309,6.0,13.0,93,0.00,OVC,,0.00,0.0,WeatherDisplay:10.37,2013-02-16 19:59:00,
2013-02-16 14:09:00,38.6,36.7,30.10,NNW,329,5.0,13.0,93,0.00,OVC,,0.00,0.0,WeatherDisplay:10.37,2013-02-16 20:09:00,
2013-02-16 14:19:00,36.5,34.7,30.10,NW,315,8.0,11.0,93,0.00,OVC,,0.00,0.0,WeatherDisplay:10.37,2013-02-16 20:19:00,
2013-02-16 14:29:00,37.9,36.1,30.10,NW,324,8.0,13.0,93,0.00,OVC,,0.00,0.0,WeatherDisplay:10.37,2013-02-16 20:29:00,
2013-02-16 14:39:00,37.8,36.0,30.10,NW,304,14.0,14.0,93,0.00,OVC,,0.00,0.0,WeatherDisplay:10.37,2013-02-16 20:39:00,
2013-02-16 14:49:00,38.3,36.5,30.10,NNW,345,7.0,14.0,93,0.00,OVC,,0.00,0.0,WeatherDisplay:10.37,2013-02-16 20:49:00,
2013-02-16 14:59:00,38.6,36.8,30.10,WNW,303,5.0,9.0,93,0.00,OVC,,0.00,0.0,WeatherDisplay:10.37,2013-02-16 20:59:00,
2013-02-16 15:09:00,38.9,37.1,30.10,WNW,290,7.0,13.0,93,0.00,OVC,,0.00,0.0,WeatherDisplay:10.37,2013-02-16 21:09:00,
2013-02-16 15:19:00,38.1,36.3,30.11,NNW,334,9.0,12.0,93,0.00,OVC,,0.00,0.0,WeatherDisplay:10.37,2013-02-16 21:19:00,
2013-02-16 15:29:00,35.0,33.2,30.11,NW,323,6.0,10.0,93,0.00,OVC,,0.00,0.0,WeatherDisplay:10.37,2013-02-16 21:29:00,
2013-02-16 15:39:00,34.0,32.2,30.11,NW,311,6.0,9.0,93,0.00,OVC,,0.00,0.0,WeatherDisplay:10.37,2013-02-16 21:39:00,
2013-02-16 15:49:00,36.1,34.3,30.11,NW,312,6.0,10.0,93,0.00,OVC,,0.00,0.0,WeatherDisplay:10.37,2013-02-16 21:49:00,
2013-02-16 15:59:00,34.3,32.5,30.11,NW,314,7.0,11.0,93,0.00,OVC,,0.00,0.0,WeatherDisplay:10.37,2013-02-16 21:59:00,
2013-02-16 16:09:00,35.8,34.0,30.12,NW,313,6.0,10.0,93,0.00,OVC,,0.00,0.0,WeatherDisplay:10.37,2013-02-16 22:09:00,
2013-02-16 16:19:00,35.7,33.9,30.12,NW,309,6.0,13.0,93,0.00,OVC,,0.00,0.0,WeatherDisplay:10.37,2013-02-16 22:19:00,
2013-02-16 16:29:00,35.4,33.6,30.12,NNW,329,8.0,11.0,93,0.00,OVC,,0.00,0.0,WeatherDisplay:10.37,2013-02-16 22:29:00,
2013-02-16 16:39:00,35.5,33.7,30.13,NW,318,7.0,10.0,93,0.00,OVC,,0.00,0.0,WeatherDisplay:10.37,2013-02-16 22:39:00,
2013-02-16 16:50:00,34.7,32.9,30.12,NNW,329,6.0,12.0,93,0.00,OVC,,0.00,0.0,WeatherDisplay:10.37,2013-02-16 22:50:00,
2013-02-16 17:00:00,34.3,32.5,30.13,NW,324,3.0,9.0,93,0.00,OVC,,0.00,0.0,WeatherDisplay:10.37,2013-02-16 23:00:00,
2013-02-16 17:10:00,33.8,32.0,30.13,NW,314,7.0,12.0,93,0.00,OVC,,0.00,0.0,WeatherDisplay:10.37,2013-02-16 23:10:00,
2013-02-16 17:20:00,33.1,31.3,30.14,NW,320,6.0,9.0,93,0.00,OVC,,0.00,0.0,WeatherDisplay:10.37,2013-02-16 23:20:00,
2013-02-16 17:30:00,32.7,30.9,30.14,NW,310,5.0,8.0,93,0.00,CLR,,0.00,0.0,WeatherDisplay:10.37,2013-02-16 23:30:00,
2013-02-16 17:39:00,33.2,31.4,30.14,NW,318,2.0,9.0,93,0.07,RA,,0.07,0.0,WeatherDisplay:10.37,2013-02-16 23:39:00,
2013-02-16 17:50:00,34.5,32.7,30.14,NNW,346,1.0,2.0,93,0.28,RA,,0.35,0.0,WeatherDisplay:10.37,2013-02-16 23:50:00,
2013-02-16 18:20:00,34.5,32.4,30.15,ESE,123,0.0,1.0,92,0.25,CLR,,0.60,0.0,WeatherDisplay:10.37,2013-02-17 00:20:00,
2013-02-16 18:31:00,34.5,32.2,30.15,SSE,149,0.0,0.0,91,0.00,CLR,,0.60,0.0,WeatherDisplay:10.37,2013-02-17 00:31:00,
2013-02-16 18:41:00,34.5,32.2,30.15,SW,221,0.0,3.0,91,0.36,RA,,0.96,0.0,WeatherDisplay:10.37,2013-02-17 00:41:00,
2013-02-16 18:50:00,34.5,31.9,30.15,SW,216,0.0,3.0,90,0.00,RA,,0.96,0.0,WeatherDisplay:10.37,2013-02-17 00:50:00,
2013-02-16 19:00:00,45.3,42.6,30.15,SSW,200,0.0,3.0,90,0.00,RA,,0.96,0.0,WeatherDisplay:10.37,2013-02-17 01:00:00,
2013-02-16 19:09:00,99.3,95.5,30.16,SE,132,1.0,3.0,89,0.00,,,0.96,0.0,WeatherDisplay:10.37,2013-02-17 01:09:00,
2013-02-16 19:19:00,99.3,95.5,30.17,ESE,112,1.0,1.0,89,0.00,CLR,,0.96,0.0,WeatherDisplay:10.37,2013-02-17 01:19:00,
2013-02-16 19:29:00,99.3,95.5,30.17,ESE,112,1.0,1.0,89,0.00,CLR,,0.96,0.0,WeatherDisplay:10.37,2013-02-17 01:29:00,
2013-02-16 19:39:00,99.3,95.5,30.17,ESE,112,1.0,1.0,89,0.00,CLR,,0.96,0.0,WeatherDisplay:10.37,2013-02-17 01:39:00,
2013-02-16 19:49:00,99.3,95.5,30.17,ESE,112,1.0,1.0,89,0.00,CLR,,0.96,0.0,WeatherDisplay:10.37,2013-02-17 01:49:00,
2013-02-16 19:59:00,99.3,95.5,30.17,ESE,112,1.0,1.0,89,0.00,CLR,,0.96,0.0,WeatherDisplay:10.37,2013-02-17 01:59:00,
2013-02-16 20:09:00,99.3,95.5,30.17,ESE,112,1.0,1.0,89,0.00,CLR,,0.96,0.0,WeatherDisplay:10.37,2013-02-17 02:09:00,
2013-02-16 20:19:00,99.3,95.5,30.17,ESE,112,1.0,1.0,89,0.00,CLR,,0.96,0.0,WeatherDisplay:10.37,2013-02-17 02:19:00,
2013-02-16 20:29:00,99.3,95.5,30.17,ESE,112,1.0,1.0,89,0.00,CLR,,0.96,0.0,WeatherDisplay:10.37,2013-02-17 02:29:00,
2013-02-16 20:39:00,99.3,95.5,30.17,ESE,112,1.0,1.0,89,0.00,CLR,,0.96,0.0,WeatherDisplay:10.37,2013-02-17 02:39:00,
2013-02-16 20:49:00,99.3,95.5,30.17,ESE,112,1.0,1.0,89,0.00,CLR,,0.96,0.0,WeatherDisplay:10.37,2013-02-17 02:49:00,
2013-02-16 20:59:00,99.3,95.5,30.17,ESE,112,1.0,1.0,89,0.00,CLR,,0.96,0.0,WeatherDisplay:10.37,2013-02-17 02:59:00,
2013-02-16 21:09:00,99.3,95.5,30.17,ESE,112,1.0,1.0,89,0.00,CLR,,0.96,0.0,WeatherDisplay:10.37,2013-02-17 03:09:00,
2013-02-16 21:19:00,99.3,95.5,30.17,ESE,112,1.0,1.0,89,0.00,CLR,,0.96,0.0,WeatherDisplay:10.37,2013-02-17 03:19:00,
2013-02-16 21:29:00,99.3,95.5,30.17,ESE,112,1.0,1.0,89,0.00,CLR,,0.96,0.0,WeatherDisplay:10.37,2013-02-17 03:29:00,
2013-02-16 21:39:00,99.3,95.5,30.17,ESE,112,1.0,1.0,89,0.00,CLR,,0.96,0.0,WeatherDisplay:10.37,2013-02-17 03:39:00,
2013-02-16 22:30:00,98.8,93.9,30.17,ESE,112,0.0,0.0,86,0.00,RA,,0.96,0.0,WeatherDisplay:10.37,2013-02-17 04:30:00,
2013-02-16 22:39:00,68.7,64.0,30.19,ESE,112,0.0,0.0,85,0.00,CLR,,0.96,0.0,WeatherDisplay:10.37,2013-02-17 04:39:00,
2013-02-16 22:49:00,68.9,64.2,30.18,ESE,112,0.0,0.0,85,0.00,CLR,,0.96,0.0,WeatherDisplay:10.37,2013-02-17 04:49:00,
2013-02-16 23:50:00,77.2,72.3,30.18,SE,126,0.0,0.0,85,0.00,CLR,,0.96,0.0,WeatherDisplay:10.37,2013-02-17 05:50:00,